Tocantinia, Brazil
Current Conditions -  °F | °C
As of 2:00 AM on Monday 22 Dec 2014 (Local Time) from SBPJ Reporting Station
Few Clouds Few Clouds  
Wind Chill: 77°   Ceiling: Unl
Heat Index: 78°   Visibility: 6mi
Dew Point: 72°   Wind: 3mph
Humidity: 83%   Direction: 180°S
Pressure: 29.88"   Gusts: NA
Location:  9.56°S, 48.38°W
Report Text: SBPJ 220500Z 18003KT 9999 FEW017 25/22 Q1012
Loading
Personal Weather Stations






























Interactive Weather Map New forecast layout! Learn more

10-Day Weather Forecast

Advertisements
Track Severe Weather on mobile